Location: *
(2.7500°S, 66.6833°W)
Time: 04:21:38
(UTC+00:00)

SL-16 R/B - Pass Details

Date: 24 May 2024
Orbit: 839 x 849 km, 71.0° (Epoch: 23 June)

Event Time Altitude Azimuth Distance (km) Brightness Sun altitude
Rises 23:04:09 0° 198° (SSW) 3,391 5.3 -10.4°
Reaches altitude 10° 23:06:36 10° 198° (SSW) 2,454 4.6 -11.0°
Maximum altitude 23:12:13 80° 285° (WNW) 853 2.3 -12.3°
Drops below altitude 10° 23:17:51 10° 12° (NNE) 2,447 4.7 -13.6°
Sets 23:20:17 0° 13° (NNE) 3,381 5.4 -14.2°
